When you browse on this site, cookies collect data to enhance your experience and personalize the content and advertising you see.
Visit our Privacy Policy to learn more. By continuing to use the site, you agree to this use of cookies and data.
  • In Austria
  • List of Countries
  • For 7 days
  • Water Temperature
  • Weather Map
  • News
  • Weather Widgets
  • user-avatar
    Login

    Hourly Weather Vratsa

    Today, 23 February, Sunday

    Time Temperature Precipitation Wind Pressure Humidity
    00:00 +2°C° 0 mm 1 mps 716 mmHg 78%
    01:00 -1°C° 0 mm 2 mps 716 mmHg 78%
    02:00 -1°C° 0 mm 2 mps 716 mmHg 77%
    03:00 -1°C° 0 mm 2 mps 715 mmHg 76%
    04:00 -1°C° 0 mm 2 mps 715 mmHg 75%
    05:00 -1°C° 0 mm 2 mps 714 mmHg 74%
    06:00 -1°C° 0 mm 2 mps 714 mmHg 72%
    07:00 -1°C° 0 mm 2 mps 714 mmHg 69%
    08:00 +1°C° 0 mm 2 mps 714 mmHg 67%
    09:00 +3°C° 0 mm 2 mps 714 mmHg 59%
    10:00 +5°C° 0 mm 2 mps 714 mmHg 52%
    11:00 +8°C° 0 mm 1 mps 714 mmHg 44%
    12:00 +9°C° 0 mm 2 mps 713 mmHg 42%
    13:00 +10°C° 0 mm 2 mps 713 mmHg 39%
    14:00 +12°C° 0 mm 2 mps 713 mmHg 36%
    15:00 +12°C° 0 mm 2 mps 712 mmHg 41%
    16:00 +10°C° 0 mm 2 mps 712 mmHg 47%
    17:00 +10°C° 0 mm 2 mps 711 mmHg 52%
    18:00 +9°C° 0 mm 2 mps 711 mmHg 53%
    19:00 +8°C° 0 mm 2 mps 711 mmHg 54%
    20:00 +7°C° 0 mm 2 mps 710 mmHg 55%
    21:00 +7°C° 0 mm 2 mps 710 mmHg 55%
    22:00 +6°C° 0 mm 2 mps 709 mmHg 54%
    23:00 +6°C° 0 mm 2 mps 709 mmHg 53%

    Tomorrow, 24 February, Monday

    Time Temperature Precipitation Wind Pressure Humidity
    00:00 +6°C° 0 mm 2 mps 709 mmHg 53%
    01:00 +5°C° 0 mm 3 mps 708 mmHg 53%
    02:00 +5°C° 0 mm 3 mps 708 mmHg 53%
    03:00 +5°C° 0 mm 3 mps 707 mmHg 53%
    04:00 +6°C° 0 mm 2 mps 707 mmHg 53%
    05:00 +6°C° 0 mm 2 mps 706 mmHg 53%
    06:00 +6°C° 0 mm 2 mps 707 mmHg 53%
    07:00 +6°C° 0 mm 2 mps 707 mmHg 53%
    08:00 +6°C° 0 mm 2 mps 708 mmHg 53%
    09:00 +7°C° 0 mm 3 mps 708 mmHg 56%
    10:00 +7°C° 0 mm 4 mps 709 mmHg 59%
    11:00 +8°C° 0 mm 6 mps 709 mmHg 61%
    12:00 +8°C° 0 mm 6 mps 709 mmHg 59%
    13:00 +9°C° 0 mm 6 mps 709 mmHg 57%
    14:00 +9°C° 0 mm 6 mps 709 mmHg 55%
    15:00 +9°C° 0 mm 6 mps 709 mmHg 54%
    16:00 +8°C° 0 mm 6 mps 709 mmHg 53%
    17:00 +7°C° 0 mm 6 mps 710 mmHg 53%
    18:00 +6°C° 0 mm 5 mps 710 mmHg 57%
    19:00 +5°C° 0 mm 3 mps 711 mmHg 61%
    20:00 +5°C° 0 mm 2 mps 711 mmHg 65%
    21:00 +4°C° 0 mm 2 mps 711 mmHg 66%
    22:00 +4°C° 0 mm 2 mps 712 mmHg 67%
    23:00 +4°C° 0 mm 1 mps 712 mmHg 68%

    Day after tomorrow, 25 February, Tuesday

    Time Temperature Precipitation Wind Pressure Humidity
    00:00 +4°C° 0 mm 1 mps 712 mmHg 69%
    01:00 +4°C° 0 mm 1 mps 711 mmHg 69%
    02:00 +3°C° 0 mm 1 mps 711 mmHg 69%
    03:00 +3°C° 0 mm 1 mps 711 mmHg 67%
    04:00 +3°C° 0 mm 1 mps 710 mmHg 66%
    05:00 +3°C° 0 mm 1 mps 710 mmHg 65%
    06:00 +3°C° 0 mm 1 mps 709 mmHg 64%
    07:00 +3°C° 0 mm 1 mps 709 mmHg 64%
    08:00 +2°C° 0 mm 2 mps 709 mmHg 63%
    09:00 +4°C° 0 mm 2 mps 709 mmHg 57%
    10:00 +7°C° 0 mm 2 mps 709 mmHg 51%
    11:00 +9°C° 0 mm 2 mps 708 mmHg 46%
    12:00 +10°C° 0 mm 2 mps 708 mmHg 44%
    13:00 +12°C° 0 mm 2 mps 707 mmHg 43%
    14:00 +13°C° 0 mm 2 mps 707 mmHg 41%
    15:00 +13°C° 0 mm 2 mps 706 mmHg 45%
    16:00 +13°C° 0 mm 1 mps 706 mmHg 48%
    17:00 +12°C° 0 mm 1 mps 705 mmHg 52%
    18:00 +11°C° 0 mm 1 mps 705 mmHg 55%
    19:00 +10°C° 0 mm 1 mps 704 mmHg 59%
    20:00 +9°C° 0 mm 1 mps 704 mmHg 63%
    21:00 +8°C° 0 mm 1 mps 704 mmHg 64%
    22:00 +7°C° 0 mm 2 mps 703 mmHg 65%
    23:00 +7°C° 0 mm 2 mps 703 mmHg 67%

    26 February, Wednesday

    Time Temperature Precipitation Wind Pressure Humidity
    00:00 +7°C° 0 mm 1 mps 703 mmHg 68%
    01:00 +7°C° 0 mm 1 mps 702 mmHg 70%
    02:00 +7°C° 0 mm 1 mps 702 mmHg 71%
    03:00 +6°C° 0 mm 2 mps 702 mmHg 73%
    04:00 +5°C° 0 mm 2 mps 701 mmHg 75%
    05:00 +5°C° 0 mm 2 mps 701 mmHg 77%
    06:00 +5°C° 0 mm 2 mps 700 mmHg 77%
    07:00 +5°C° 0 mm 2 mps 700 mmHg 78%
    08:00 +5°C° 0 mm 2 mps 700 mmHg 79%
    09:00 +7°C° 0 mm 2 mps 700 mmHg 72%
    10:00 +9°C° 0 mm 2 mps 699 mmHg 65%
    11:00 +12°C° 0 mm 2 mps 699 mmHg 58%
    12:00 +13°C° 0 mm 2 mps 699 mmHg 52%
    13:00 +13°C° 0 mm 3 mps 698 mmHg 47%
    14:00 +14°C° 0 mm 3 mps 697 mmHg 41%
    15:00 +14°C° 0 mm 3 mps 697 mmHg 43%
    16:00 +13°C° 0 mm 3 mps 697 mmHg 45%
    17:00 +13°C° 0 mm 3 mps 696 mmHg 47%
    18:00 +12°C° 0 mm 3 mps 696 mmHg 50%
    19:00 +11°C° 0 mm 3 mps 696 mmHg 54%
    20:00 +10°C° 0 mm 3 mps 696 mmHg 57%
    21:00 +9°C° 0 mm 3 mps 696 mmHg 60%
    22:00 +8°C° 0 mm 3 mps 696 mmHg 64%
    23:00 +8°C° 0 mm 3 mps 696 mmHg 67%

    27 February, Thursday

    Time Temperature Precipitation Wind Pressure Humidity
    00:00 +7°C° 0 mm 3 mps 696 mmHg 69%
    01:00 +7°C° 0 mm 3 mps 696 mmHg 70%
    02:00 +7°C° 0 mm 3 mps 696 mmHg 71%
    03:00 +5°C° 0 mm 3 mps 696 mmHg 72%
    04:00 +5°C° 0 mm 3 mps 696 mmHg 73%
    05:00 +6°C° 0 mm 2 mps 695 mmHg 73%
    06:00 +6°C° 0 mm 2 mps 695 mmHg 74%
    07:00 +6°C° 0 mm 2 mps 695 mmHg 74%
    08:00 +7°C° 0 mm 1 mps 695 mmHg 75%
    09:00 +8°C° 0.1 mm 1 mps 695 mmHg 70%
    10:00 +9°C° 0.1 mm 1 mps 695 mmHg 65%
    11:00 +11°C° 0.1 mm 1 mps 695 mmHg 60%
    12:00 +10°C° 0.1 mm 2 mps 695 mmHg 61%
    13:00 +10°C° 0.1 mm 3 mps 695 mmHg 62%
    14:00 +10°C° 0.1 mm 4 mps 694 mmHg 63%
    15:00 +10°C° 1.2 mm 4 mps 694 mmHg 67%
    16:00 +9°C° 1.2 mm 3 mps 694 mmHg 72%
    17:00 +8°C° 1.2 mm 3 mps 694 mmHg 76%
    18:00 +6°C° 3.9 mm 4 mps 694 mmHg 80%
    19:00 +5°C° 3.9 mm 5 mps 694 mmHg 84%
    20:00 +3°C° 3.9 mm 6 mps 694 mmHg 89%
    21:00 +2°C° 6.5 mm 7 mps 695 mmHg 91%
    22:00 0°C° 6.5 mm 7 mps 696 mmHg 93%
    23:00 0°C° 6.5 mm 7 mps 696 mmHg 95%

    28 February, Friday

    Time Temperature Precipitation Wind Pressure Humidity
    00:00 -1°C° 7.3 mm 7 mps 697 mmHg 94%
    01:00 -2°C° 7.3 mm 7 mps 698 mmHg 94%
    02:00 -3°C° 7.3 mm 6 mps 699 mmHg 94%
    03:00 -3°C° 2.8 mm 6 mps 699 mmHg 94%
    04:00 -2°C° 2.8 mm 5 mps 700 mmHg 94%
    05:00 -4°C° 2.8 mm 5 mps 701 mmHg 94%
    06:00 -4°C° 1.5 mm 5 mps 702 mmHg 94%
    07:00 -3°C° 1.5 mm 4 mps 704 mmHg 95%
    08:00 -4°C° 1.5 mm 4 mps 705 mmHg 95%
    09:00 -3°C° 0.6 mm 4 mps 705 mmHg 94%
    10:00 -3°C° 0.6 mm 4 mps 706 mmHg 93%
    11:00 -2°C° 0.6 mm 4 mps 707 mmHg 92%
    12:00 -1°C° 0.2 mm 3 mps 707 mmHg 90%
    13:00 0°C° 0.2 mm 3 mps 708 mmHg 89%
    14:00 +1°C° 0.2 mm 2 mps 708 mmHg 87%
    15:00 +2°C° 0 mm 2 mps 708 mmHg 86%
    16:00 +2°C° 0 mm 2 mps 709 mmHg 84%
    17:00 +3°C° 0 mm 1 mps 709 mmHg 83%
    18:00 +2°C° 0 mm 1 mps 710 mmHg 81%
    19:00 +1°C° 0 mm 1 mps 710 mmHg 79%
    20:00 0°C° 0 mm 1 mps 710 mmHg 77%
    21:00 -1°C° 0 mm 1 mps 711 mmHg 76%
    22:00 -3°C° 0 mm 2 mps 711 mmHg 75%
    23:00 -3°C° 0 mm 2 mps 711 mmHg 73%
    Show more